This demonstration page uses our WeatherBlox Daily Observations layout. Learn more.

39.29038, -76.61219

Hourly Observations for April 10, 2019

Temp ( °F °C ) Dew Point ( °F °C ) Humidity (%) Winds ( mph kmh ) Pressure ( in mb ) Visibility ( mi km ) Precip ( " mm )
12:54 am 00:54 undefined 62 16.7 26 -3.3 25 25 undefined N/A 29.76 1008 N/A 0 0
1:54 am 01:54 undefined 59 15 30 -1.1 33 33 undefined N/A 29.78 1008 N/A 0 0
2:54 am 02:54 undefined 58 14.4 29 -1.7 33 33 undefined N/A 29.78 1009 N/A 0 0
3:54 am 03:54 undefined 56 13.3 30 -1.1 37 37 undefined N/A 29.79 1009 N/A 0 0
4:54 am 04:54 undefined 57 13.9 29 -1.7 34 34 undefined N/A 29.79 1009 N/A 0 0
5:54 am 05:54 undefined 56 13.3 30 -1.1 37 37 undefined N/A 29.81 1010 N/A 0 0
6:54 am 06:54 undefined 55 12.8 30 -1.1 38 38 undefined N/A 29.84 1011 N/A 0 0
7:54 am 07:54 undefined 57 13.9 31 -0.6 37 37 undefined N/A 29.85 1011 N/A 0 0
8:54 am 08:54 undefined 61 16.1 31 -0.6 32 32 undefined N/A 29.85 1011 N/A 0 0
9:54 am 09:54 undefined 63 17.2 31 -0.6 30 30 undefined N/A 29.86 1011 N/A 0 0
10:54 am 10:54 undefined 63 17.2 32 0 31 31 undefined N/A 29.85 1011 N/A 0 0
11:54 am 11:54 undefined 65 18.3 31 -0.6 28 28 undefined N/A 29.86 1011 N/A 0 0
12:54 pm 12:54 undefined 66 18.9 32 0 28 28 undefined N/A 29.84 1011 N/A 0 0
1:54 pm 13:54 undefined 67 19.4 29 -1.7 24 24 undefined N/A 29.85 1011 N/A 0 0
2:54 pm 14:54 undefined 67 19.4 31 -0.6 26 26 undefined N/A 29.85 1011 N/A 0 0
3:54 pm 15:54 undefined 68 20 31 -0.6 25 25 undefined N/A 29.85 1011 N/A 0 0
4:54 pm 16:54 undefined 68 20 31 -0.6 25 25 undefined N/A 29.84 1010 N/A 0 0
5:54 pm 17:54 undefined 67 19.4 31 -0.6 26 26 undefined N/A 29.85 1011 N/A 0 0
6:54 pm 18:54 undefined 67 19.4 32 0 27 27 undefined N/A 29.87 1012 N/A 0 0
7:54 pm 19:54 undefined 65 18.3 32 0 29 29 undefined N/A 29.88 1012 N/A 0 0
8:54 pm 20:54 undefined 63 17.2 32 0 31 31 undefined N/A 29.93 1013 N/A 0 0
9:54 pm 21:54 undefined 61 16.1 33 0.6 35 35 undefined N/A 29.96 1015 N/A 0 0
10:54 pm 22:54 undefined 59 15 33 0.6 38 38 undefined N/A 29.99 1016 N/A 0 0
11:54 pm 23:54 undefined 58 14.4 33 0.6 39 39 undefined N/A 30.01 1016 N/A 0 0

Powered by AerisWeather